This is the latest recevied weather packets stored in our database for station/object K3CHZ. If no packets are shown the sender has not sent any weather packets the latest 10 day(s).
| Time | Temp. | Humidity | Pressure | Rain* | Wind** | Luminosity | Snow |
|---|---|---|---|---|---|---|---|
| 1777834342 | 15° C | 38% | 1015.3 hPa | 0 mm | - | - | - |
| 1777834040 | 15.56° C | 36% | 1015.5 hPa | 0 mm | - | - | - |
| 1777833739 | 15° C | 37% | 1015.5 hPa | 0 mm | - | - | - |
| 1777833440 | 15° C | 38% | 1015.5 hPa | 0 mm | - | - | - |
| 1777833141 | 14.44° C | 37% | 1015.6 hPa | 0 mm | - | - | - |
| 1777832840 | 14.44° C | 40% | 1015.6 hPa | 0 mm | - | - | - |
| 1777832541 | 14.44° C | 43% | 1015.7 hPa | 0 mm | - | - | - |
| 1777832240 | 14.44° C | 37% | 1015.7 hPa | 0 mm | - | - | - |
| 1777831941 | 13.89° C | 40% | 1015.8 hPa | 0 mm | - | - | - |
| 1777831640 | 14.44° C | 38% | 1015.7 hPa | 0 mm | - | - | - |
| 1777831340 | 14.44° C | 38% | 1015.8 hPa | 0 mm | - | - | - |
| 1777831040 | 15° C | 38% | 1015.9 hPa | 0 mm | - | - | - |
| 1777830740 | 14.44° C | 43% | 1015.9 hPa | 0 mm | - | - | - |
| 1777830440 | 14.44° C | 40% | 1015.9 hPa | 0 mm | - | - | - |
| 1777830140 | 13.89° C | 41% | 1016.1 hPa | 0 mm | - | - | - |
| 1777829840 | 13.89° C | 39% | 1015.9 hPa | 0 mm | - | - | - |
| 1777829540 | 13.89° C | 43% | 1016 hPa | 0 mm | - | - | - |
| 1777829243 | 13.89° C | 41% | 1015.9 hPa | 0 mm | - | - | - |
| 1777828940 | 13.89° C | 40% | 1016 hPa | 0 mm | - | - | - |
| 1777828640 | 13.33° C | 42% | 1016.1 hPa | 0 mm | - | - | - |
| 1777828339 | 12.78° C | 51% | 1016.4 hPa | 0 mm | - | - | - |
| 1777828040 | 12.78° C | 42% | 1016.4 hPa | 0 mm | - | - | - |
| 1777827740 | 12.78° C | 41% | 1016.4 hPa | 0 mm | - | - | - |
| 1777827439 | 13.33° C | 44% | 1016.3 hPa | 0 mm | - | - | - |
| 1777827140 | 13.33° C | 42% | 1016.4 hPa | 0 mm | - | - | - |
* Rain latest hour (hover to see other rain measurements)
** Current wind speed in m/s (hover to see current wind gust speed)